Change the Weather History Date:

Friday, September 13, 2013

  Actual Average Record
Temperature  
Mean Temperature 80 °F -  
Max Temperature 89 °F 80 °F 93 °F (1998)
Min Temperature 72 °F 63 °F 56 °F (2012)
Cooling Degree Days 15    
Growing Degree Days 30 (Base 50)    
Moisture  
Dew Point 64 °F    
Average Humidity 63    
Maximum Humidity 98    
Minimum Humidity 37    
Precipitation  
Precipitation 0.00 in - - ()
Sea Level Pressure  
Sea Level Pressure 29.80 in    
Wind  
Wind Speed 6 mph (NW)    
Max Wind Speed 10 mph    
Max Gust Speed -    
Visibility 10 miles    
Events      
Averages and records for this station are not official NWS values.
T = Trace of Precipitation, MM = Missing Value Source: NWS Daily Summary

Daily Weather History Graph

Daily Weather History Graph

Search for Another Location

Airport or City:

Trip Planner

Search our weather history database for the weather conditions in past years. The results will help you decide how hot, cold, wet, or windy it might be!

Date:

Astronomy

Sep. 13, 2013 Rise Set
Actual Time 6:57 AM EDT 7:25 PM EDT
Civil Twilight 6:31 AM EDT 7:50 PM EDT
Nautical Twilight 6:01 AM EDT 8:20 PM EDT
Astronomical Twilight 5:31 AM EDT 8:50 PM EDT
Moon 3:03 PM EDT (9/13) 12:34 AM EDT (9/13)
Length of Visible Light 13h 18m
Length of Day
12h 27m
First Quarter, 61% of the Moon is Illuminated
Sep 13
First Quarter
Sep 19
Full
Sep 26
Last Quarter
Oct 4
New
Oct 11
First Quarter

Hourly Weather History & Observations

Time (EDT) Temp. Heat Index Dew Point Humidity Pressure Visibility Wind Dir Wind Speed Gust Speed Precip Events Conditions
12:58 AM 77.9 °F - 70.9 °F 79% 29.81 in 10.0 mi SSW 4.6 mph - N/A   Clear
1:58 AM 77.0 °F - 70.9 °F 81% 29.80 in 10.0 mi SW 8.1 mph - N/A   Scattered Clouds
2:58 AM 75.0 °F - 70.9 °F 87% 29.79 in 10.0 mi West 8.1 mph - N/A   Partly Cloudy
3:58 AM 74.3 °F - 70.7 °F 88% 29.78 in 10.0 mi West 3.5 mph - N/A   Clear
4:58 AM 73.8 °F - 70.7 °F 90% 29.77 in 10.0 mi SW 3.5 mph - N/A   Clear
5:58 AM 73.2 °F - 70.9 °F 92% 29.78 in 10.0 mi Variable 1.2 mph - N/A   Clear
6:58 AM 72.0 °F - 71.2 °F 98% 29.79 in 10.0 mi West 3.5 mph - N/A   Clear
7:55 AM 73.2 °F - 70.9 °F 92% 29.81 in 10.0 mi NW 6.9 mph - N/A   Partly Cloudy
7:58 AM 73.2 °F - 70.9 °F 92% 29.81 in 10.0 mi NW 5.8 mph - N/A   Partly Cloudy
8:58 AM 75.6 °F - 69.3 °F 81% 29.82 in 10.0 mi NW 9.2 mph - N/A   Clear
9:58 AM 80.4 °F 82.6 °F 66.4 °F 62% 29.82 in 10.0 mi NNW 8.1 mph - N/A   Clear
10:58 AM 83.5 °F 84.7 °F 63.9 °F 51% 29.82 in 10.0 mi NNW 10.4 mph - N/A   Clear
11:58 AM 84.7 °F 85.2 °F 61.7 °F 46% 29.81 in 10.0 mi NNW 10.4 mph - N/A   Clear
12:55 PM 85.8 °F 86.1 °F 61.9 °F 44% 29.79 in 10.0 mi Variable 4.6 mph - N/A   Clear
12:58 PM 85.8 °F 86.1 °F 61.9 °F 44% 29.80 in 10.0 mi North 5.8 mph - N/A   Clear
1:58 PM 86.4 °F 86.5 °F 61.7 °F 43% 29.78 in 10.0 mi NNW 9.2 mph - N/A   Partly Cloudy
2:58 PM 88.7 °F 88.8 °F 61.3 °F 40% 29.76 in 10.0 mi NNW 9.2 mph - N/A   Partly Cloudy
3:58 PM 86.9 °F 86.3 °F 59.0 °F 39% 29.76 in 10.0 mi North 8.1 mph - N/A   Clear
4:58 PM 88.7 °F 88.0 °F 59.0 °F 37% 29.76 in 10.0 mi North 9.2 mph - N/A   Partly Cloudy
5:58 PM 86.7 °F 85.9 °F 58.5 °F 38% 29.76 in 10.0 mi NNW 9.2 mph - N/A   Clear
6:58 PM 83.3 °F 82.6 °F 56.5 °F 40% 29.77 in 10.0 mi NNW 8.1 mph - N/A   Clear
7:58 PM 77.9 °F - 60.8 °F 56% 29.81 in 10.0 mi North 8.1 mph - N/A   Clear
8:58 PM 76.5 °F - 57.0 °F 51% 29.83 in 10.0 mi North 8.1 mph - N/A   Mostly Cloudy
9:58 PM 74.3 °F - 54.9 °F 51% 29.86 in 10.0 mi North 4.6 mph - N/A   Partly Cloudy
10:58 PM 73.0 °F - 54.9 °F 53% 29.88 in 10.0 mi North 6.9 mph - N/A   Mostly Cloudy
11:58 PM 72.1 °F - 55.4 °F 56% 29.88 in 10.0 mi North 6.9 mph - N/A   Mostly Cloudy